Flight Track Log - Related Links

Times and Time Zones

All times are in EDT time to prevent confusion due to time zone crossing. See the N789EX flight status page for this flight to view local times or setup timezone preferences in your user account.

Time Position Orientation Groundspeed Altitude Reporting Facility
EDT Latitude Longitude Course Direction KTS MPH feet Rate Location/Type
Thu 04:10:17 PM 38.7265 -104.5335 65° Northeast 222 255 8,900  Level FlightAware ADS-B
Thu 04:10:26 PM 38.7335 -104.5205 26° Northeast 229 264 8,900  Level FlightAware ADS-B
Thu 04:10:58 PM 38.7651 -104.5073 North 230 265 8,900  Level FlightAware ADS-B
Thu 04:11:37 PM 38.8051 -104.4996 North 228 262 8,900  Level FlightAware ADS-B
Thu 04:12:00 PM 38.8235 -104.4964 North 233 268 8,900  Level FlightAware ADS-B
Thu 04:12:19 PM 38.8464 -104.4920 North 235 270 8,900 154 Level FlightAware ADS-B
Thu 04:12:39 PM 38.8695 -104.4922 351° North 234 269 9,000  Climbing FlightAware ADS-B
Thu 04:12:59 PM 38.8938 -104.4981 348° North 234 269 8,900 -150 Descending FlightAware ADS-B
Thu 04:13:19 PM 38.9111 -104.5030 347° North 230 265 8,900  Level FlightAware ADS-B
Thu 04:13:39 PM 38.9338 -104.5096 347° North 229 264 8,900  Level FlightAware ADS-B
Thu 04:13:59 PM 38.9526 -104.5151 348° North 228 262 8,900 150 Level FlightAware ADS-B
Thu 04:14:19 PM 38.9719 -104.5239 320° Northwest 226 260 9,000 150 Climbing FlightAware ADS-B
Thu 04:14:39 PM 38.9798 -104.5335 293° West 226 260 9,000 -150 Level FlightAware ADS-B
Thu 04:14:59 PM 38.9934 -104.5733 290° West 223 257 8,900 -154 Descending FlightAware ADS-B
Thu 04:15:18 PM 39.0003 -104.5980 290° West 222 255 8,900  Level FlightAware ADS-B
Thu 04:15:39 PM 39.0075 -104.6230 290° West 219 252 8,900  Level FlightAware ADS-B
Thu 04:15:58 PM 39.0144 -104.6464 292° West 224 258 8,900  Level FlightAware ADS-B
Thu 04:16:19 PM 39.0201 -104.6686 270° West 217 250 8,900  Level FlightAware ADS-B
Thu 04:16:39 PM 39.0106 -104.6939 210° Southwest 206 237 8,900 158 Level FlightAware ADS-B
Thu 04:16:57 PM 39.0017 -104.6970 165° South 204 235 9,000 150 Climbing FlightAware ADS-B
Thu 04:17:19 PM 38.9803 -104.6880 159° South 198 228 9,000 -143 Level FlightAware ADS-B
Thu 04:17:39 PM 38.9583 -104.6837 182° South 187 215 8,900 -600 Descending FlightAware ADS-B
Thu 04:17:59 PM 38.9420 -104.6854 183° South 181 208 8,600 -900 Descending FlightAware ADS-B
Thu 04:18:19 PM 38.9260 -104.6855 179° South 168 193 8,300 -923 Descending FlightAware ADS-B
Thu 04:18:38 PM 38.9100 -104.6854 181° South 166 191 8,000 -1,029 Descending FlightAware ADS-B
Thu 04:18:54 PM 38.9038 -104.6855 180° South 169 194 7,700 -900 Descending FlightAware ADS-B
Thu 04:19:18 PM 38.8976 -104.6856 180° South 165 190 7,400 -800 Descending FlightAware ADS-B
Thu 04:19:39 PM 38.8631 -104.6855 180° South 165 190 7,100  Descending FlightAware ADS-B
Thu 04:21:19 PM 38.7995 -104.6858 141° Southeast 177 204 7,400 400 Climbing FlightAware ADS-B
Thu 04:21:39 PM 38.7803 -104.6667 94° East 211 243 7,900 1,833 Climbing FlightAware ADS-B
Thu 04:21:55 PM 38.7801 -104.6413 86° East 216 249 8,500 1,500 Climbing FlightAware ADS-B
Thu 04:22:19 PM 38.7832 -104.6127 67° East 218 251 8,900 682 Climbing FlightAware ADS-B
Thu 04:22:39 PM 38.7878 -104.6028 24° Northeast 231 266 9,000  Climbing FlightAware ADS-B
Thu 04:22:59 PM 38.8205 -104.5881 North 231 266 8,900 -150 Descending FlightAware ADS-B
Thu 04:23:19 PM 38.8420 -104.5850 North 228 262 8,900 150 Level FlightAware ADS-B
Thu 04:23:39 PM 38.8508 -104.5836 North 227 261 9,000 150 Climbing FlightAware ADS-B
Thu 04:23:59 PM 38.8842 -104.5775 North 236 272 9,000 -154 Level FlightAware ADS-B
Thu 04:24:18 PM 38.8926 -104.5759 North 236 272 8,900 -154 Descending FlightAware ADS-B
Thu 04:24:38 PM 38.9140 -104.5719 North 234 269 8,900  Level FlightAware ADS-B
Thu 04:24:59 PM 38.9469 -104.5658 North 231 266 8,900 150 Level FlightAware ADS-B
Thu 04:25:18 PM 38.9679 -104.5629 North 231 266 9,000  Climbing FlightAware ADS-B
Thu 04:25:39 PM 38.9902 -104.5632 359° North 228 262 8,900 -146 Descending FlightAware ADS-B
Thu 04:25:59 PM 39.0115 -104.5639 359° North 231 266 8,900 150 Level FlightAware ADS-B
Thu 04:26:19 PM 39.0314 -104.5644 359° North 233 268 9,000  Climbing FlightAware ADS-B
Thu 04:26:59 PM 39.0721 -104.5724 324° Northwest 228 262 8,900  Descending FlightAware ADS-B
Thu 04:27:19 PM 39.0839 -104.5977 286° West 221 254 9,000  Climbing FlightAware ADS-B
Thu 04:27:39 PM 39.0886 -104.6241 282° West 221 254 8,900 -158 Descending FlightAware ADS-B
Thu 04:27:57 PM 39.0904 -104.6457 263° West 206 237 8,900 150 Level FlightAware ADS-B
Thu 04:28:19 PM 39.0798 -104.6665 216° Southwest 188 216 9,000  Climbing FlightAware ADS-B
Thu 04:28:39 PM 39.0643 -104.6787 210° Southwest 193 222 8,900 -150 Descending FlightAware ADS-B
Thu 04:28:59 PM 39.0579 -104.6827 182° South 187 215 8,900 150 Level FlightAware ADS-B
Thu 04:29:19 PM 39.0305 -104.6849 182° South 190 219 9,000  Climbing FlightAware ADS-B
Thu 04:29:39 PM 39.0128 -104.6852 180° South 191 220 8,900 -150 Descending FlightAware ADS-B
Thu 04:29:59 PM 38.9952 -104.6853 179° South 189 217 8,900  Level FlightAware ADS-B
Thu 04:30:19 PM 38.9783 -104.6854 180° South 188 216 8,900 300 Level FlightAware ADS-B
Thu 04:30:39 PM 38.9630 -104.6853 180° South 179 206 9,100 -300 Climbing FlightAware ADS-B
Thu 04:30:59 PM 38.9459 -104.6854 180° South 177 204 8,700 -1,200 Descending FlightAware ADS-B
Thu 04:31:19 PM 38.9297 -104.6854 180° South 171 197 8,300 -1,077 Descending FlightAware ADS-B
Thu 04:31:38 PM 38.9135 -104.6854 180° South 166 191 8,000 -900 Descending FlightAware ADS-B
Thu 04:31:59 PM 38.8984 -104.6855 180° South 164 189 7,700 -900 Descending FlightAware ADS-B
Thu 04:32:18 PM 38.8860 -104.6855 180° South 163 188 7,400 -900 Descending FlightAware ADS-B
Thu 04:32:39 PM 38.8696 -104.6855 180° South 165 190 7,100 -774 Descending FlightAware ADS-B
Thu 04:33:20 PM 38.8351 -104.6856 180° South 164 189 6,600 110 Descending FlightAware ADS-B
Thu 04:49:01 PM 38.7368 -104.6639 108° East 209 241 8,900 150 Climbing FlightAware ADS-B
Thu 04:49:21 PM 38.7360 -104.6374 88° East 221 254 9,000 150 Climbing FlightAware ADS-B
Thu 04:49:41 PM 38.7376 -104.6177 85° East 228 262 9,000  Level FlightAware ADS-B
Thu 04:50:01 PM 38.7401 -104.5842 84° East 226 260 9,000 -150 Level FlightAware ADS-B
Thu 04:50:21 PM 38.7453 -104.5597 58° Northeast 228 262 8,900  Descending FlightAware ADS-B
Thu 04:50:32 PM 38.7541 -104.5480 36° Northeast 233 268 9,000 150 Climbing FlightAware ADS-B
Thu 04:51:01 PM 38.7840 -104.5411 359° North 232 267 9,000  Level FlightAware ADS-B
Thu 04:51:37 PM 38.8189 -104.5425 358° North 237 273 9,000  Level FlightAware ADS-B
Thu 04:52:01 PM 38.8493 -104.5435 359° North 235 270 9,000  Level FlightAware ADS-B
Thu 04:52:19 PM 38.8631 -104.5440 358° North 234 269 9,000  Level FlightAware ADS-B
Thu 04:52:38 PM 38.8726 -104.5443 359° North 231 266 9,000  Level FlightAware ADS-B
Thu 04:53:01 PM 38.9010 -104.5452 359° North 230 265 9,000  Level FlightAware ADS-B
Thu 04:53:20 PM 38.9242 -104.5455 359° North 232 267 9,000  Level FlightAware ADS-B
Thu 04:53:41 PM 38.9573 -104.5462 359° North 240 276 9,000  Level FlightAware ADS-B
Thu 04:54:01 PM 38.9781 -104.5467 359° North 236 272 9,000  Level FlightAware ADS-B
Thu 04:54:21 PM 39.0011 -104.5472 359° North 235 270 9,000  Level FlightAware ADS-B
Thu 04:54:41 PM 39.0228 -104.5476 360° North 231 266 9,000  Level FlightAware ADS-B
Thu 04:55:01 PM 39.0438 -104.5478 360° North 231 266 9,000  Level FlightAware ADS-B
Thu 04:55:21 PM 39.0620 -104.5497 337° Northwest 229 264 9,000  Level FlightAware ADS-B
Thu 04:55:40 PM 39.0807 -104.5699 297° West 229 264 9,000  Level FlightAware ADS-B
Thu 04:56:01 PM 39.0845 -104.5928 274° West 221 254 9,000  Level FlightAware ADS-B
Thu 04:56:20 PM 39.0856 -104.6201 272° West 221 254 9,000  Level FlightAware ADS-B
Thu 04:56:41 PM 39.0829 -104.6459 246° West 215 247 9,000  Level FlightAware ADS-B
Thu 04:57:01 PM 39.0690 -104.6642 215° Southwest 208 239 9,000  Level FlightAware ADS-B
Thu 04:57:21 PM 39.0520 -104.6774 211° Southwest 208 239 9,000  Level FlightAware ADS-B
Thu 04:57:41 PM 39.0352 -104.6841 185° South 199 229 9,000  Level FlightAware ADS-B
Thu 04:58:00 PM 39.0176 -104.6847 182° South 202 232 9,000  Level FlightAware ADS-B
Thu 04:58:21 PM 39.0000 -104.6853 180° South 205 236 9,000  Level FlightAware ADS-B
Thu 04:58:41 PM 38.9791 -104.6853 180° South 180 207 9,000  Level FlightAware ADS-B
Thu 04:59:01 PM 38.9639 -104.6853 179° South 172 198 9,000 -324 Level FlightAware ADS-B
Thu 04:59:18 PM 38.9496 -104.6854 180° South 176 203 8,800 -900 Descending FlightAware ADS-B
Thu 04:59:41 PM 38.9319 -104.6854 180° South 167 192 8,400 -977 Descending FlightAware ADS-B
Thu 05:00:01 PM 38.9158 -104.6854 180° South 164 189 8,100 -900 Descending FlightAware ADS-B
Thu 05:00:21 PM 38.8996 -104.6854 179° South 166 191 7,800 -900 Descending FlightAware ADS-B
Thu 05:00:41 PM 38.8914 -104.6854 180° South 161 185 7,500 -900 Descending FlightAware ADS-B
Thu 05:01:01 PM 38.8712 -104.6855 180° South 160 184 7,200 -900 Descending FlightAware ADS-B
Thu 05:01:21 PM 38.8654 -104.6856 180° South 164 189 6,900 -364 Descending FlightAware ADS-B
Thu 05:02:40 PM 38.7959 -104.6857 180° South 158 182 6,600  Descending FlightAware ADS-B
Thu 05:02:59 PM 38.7817 -104.6859 181° South 162 186 6,900 868 Climbing FlightAware ADS-B
Thu 05:03:56 PM 38.7398 -104.6869 180° South 162 186 7,700 759 Climbing FlightAware ADS-B
Thu 05:04:18 PM 38.7229 -104.6870 181° South 165 190 7,900 486 Climbing FlightAware ADS-B
Thu 05:04:33 PM 38.7142 -104.6873 181° South 175 201 8,000 1,091 Climbing FlightAware ADS-B
Thu 05:05:02 PM 38.6860 -104.6795 140° Southeast 223 257 8,700 1,224 Climbing FlightAware ADS-B
Thu 05:05:22 PM 38.6749 -104.6550 111° Southeast 236 272 9,000 514 Climbing FlightAware ADS-B
Thu 05:05:37 PM 38.6752 -104.6395 67° East 247 284 9,000  Level FlightAware ADS-B
Thu 05:06:02 PM 38.6876 -104.6137 37° Northeast 249 287 9,000  Level FlightAware ADS-B
Thu 05:06:21 PM 38.7121 -104.5898 37° Northeast 253 291 9,000  Level FlightAware ADS-B
Thu 05:06:40 PM 38.7301 -104.5741 23° Northeast 250 288 9,000  Level FlightAware ADS-B
Thu 05:06:58 PM 38.7505 -104.5691 360° North 238 274 9,000  Level FlightAware ADS-B
Thu 05:07:35 PM 38.7908 -104.5711 358° North 234 269 9,000  Level FlightAware ADS-B
Thu 05:08:02 PM 38.8206 -104.5725 358° North 231 266 9,000  Level FlightAware ADS-B
Thu 05:08:19 PM 38.8387 -104.5733 358° North 232 267 9,000  Level FlightAware ADS-B
Thu 05:08:42 PM 38.8604 -104.5744 358° North 235 270 9,000  Level FlightAware ADS-B
Thu 05:09:02 PM 38.8828 -104.5753 359° North 233 268 9,000  Level FlightAware ADS-B
Thu 05:09:18 PM 38.9027 -104.5761 359° North 235 270 9,000  Level FlightAware ADS-B
Thu 05:09:42 PM 38.9278 -104.5767 359° North 236 272 9,000  Level FlightAware ADS-B
Thu 05:09:59 PM 38.9385 -104.5771 358° North 235 270 9,000  Level FlightAware ADS-B
Thu 05:10:22 PM 38.9702 -104.5786 358° North 232 267 9,000  Level FlightAware ADS-B
Thu 05:10:42 PM 38.9945 -104.5796 358° North 232 267 9,000  Level FlightAware ADS-B
Thu 05:11:02 PM 39.0136 -104.5838 333° Northwest 233 268 9,000  Level FlightAware ADS-B
Thu 05:11:21 PM 39.0287 -104.6049 290° West 226 260 9,000  Level FlightAware ADS-B
Thu 05:11:42 PM 39.0312 -104.6240 272° West 224 258 9,000  Level FlightAware ADS-B
Thu 05:12:02 PM 39.0308 -104.6495 248° West 220 253 9,000  Level FlightAware ADS-B
Thu 05:12:22 PM 39.0171 -104.6733 213° Southwest 201 231 9,000  Level FlightAware ADS-B
Thu 05:12:41 PM 39.0008 -104.6836 189° South 192 221 9,000  Level FlightAware ADS-B
Thu 05:13:02 PM 38.9819 -104.6848 182° South 191 220 9,000  Level FlightAware ADS-B
Thu 05:13:22 PM 38.9668 -104.6852 180° South 185 213 9,000 -308 Level FlightAware ADS-B
Thu 05:13:41 PM 38.9477 -104.6854 180° South 176 203 8,800 -900 Descending FlightAware ADS-B
Thu 05:14:02 PM 38.9321 -104.6854 180° South 170 196 8,400 -1,050 Descending FlightAware ADS-B
Thu 05:14:21 PM 38.9185 -104.6854 180° South 162 186 8,100 -900 Descending FlightAware ADS-B
Thu 05:14:42 PM 38.9027 -104.6854 180° South 162 186 7,800 -878 Descending FlightAware ADS-B
Thu 05:15:02 PM 38.8868 -104.6855 180° South 159 183 7,500 -923 Descending FlightAware ADS-B
Thu 05:15:21 PM 38.8729 -104.6855 180° South 160 184 7,200 -1,043 Descending FlightAware ADS-B
Thu 05:15:48 PM 38.8525 -104.6856 180° South 160 184 6,700 -200 Descending FlightAware ADS-B
Thu 05:17:21 PM 38.7826 -104.6858 181° South 165 190 6,800 286 Climbing FlightAware ADS-B
Thu 05:17:54 PM 38.7771 -104.6859 181° South 165 190 7,300 960 Climbing FlightAware ADS-B
Thu 05:18:36 PM 38.7234 -104.6856 167° South 186 214 8,000 1,324 Climbing FlightAware ADS-B
Thu 05:19:02 PM 38.7075 -104.6667 107° East 219 252 8,800 1,304 Climbing FlightAware ADS-B
Thu 05:19:22 PM 38.7063 -104.6371 78° East 224 258 9,000 300 Climbing FlightAware ADS-B
Thu 05:19:42 PM 38.7086 -104.6287 42° Northeast 235 270 9,000  Level FlightAware ADS-B
Thu 05:19:59 PM 38.7321 -104.6002 36° Northeast 237 273 9,000  Level FlightAware ADS-B
Thu 05:20:23 PM 38.7515 -104.5826 35° Northeast 233 268 9,000  Level FlightAware ADS-B
Thu 05:20:43 PM 38.7711 -104.5646 37° Northeast 229 264 9,000  Level FlightAware ADS-B
Thu 05:21:03 PM 38.7881 -104.5496 31° Northeast 230 265 9,000  Level FlightAware ADS-B
Thu 05:21:19 PM 38.8046 -104.5444 North 231 266 9,000  Level FlightAware ADS-B
Thu 05:21:43 PM 38.8316 -104.5448 359° North 231 266 9,000  Level FlightAware ADS-B
Thu 05:22:03 PM 38.8527 -104.5453 359° North 232 267 9,000  Level FlightAware ADS-B
Thu 05:22:23 PM 38.8721 -104.5459 358° North 233 268 9,000  Level FlightAware ADS-B
Thu 05:23:03 PM 38.9080 -104.5474 359° North 231 266 9,000  Level FlightAware ADS-B
Thu 05:23:23 PM 38.9332 -104.5482 358° North 234 269 9,000  Level FlightAware ADS-B
Thu 05:24:03 PM 38.9806 -104.5499 359° North 232 267 9,000  Level FlightAware ADS-B
Thu 05:24:23 PM 39.0024 -104.5507 359° North 232 267 9,000  Level FlightAware ADS-B
Thu 05:24:43 PM 39.0199 -104.5546 332° Northwest 234 269 9,000  Level FlightAware ADS-B
Thu 05:25:03 PM 39.0330 -104.5689 291° West 225 259 9,000  Level FlightAware ADS-B
Thu 05:25:23 PM 39.0385 -104.6032 273° West 225 259 9,000  Level FlightAware ADS-B
Thu 05:25:43 PM 39.0388 -104.6107 272° West 225 259 9,000  Level FlightAware ADS-B
Thu 05:26:03 PM 39.0394 -104.6507 254° West 218 251 9,000  Level FlightAware ADS-B
Thu 05:26:23 PM 39.0258 -104.6766 216° Southwest 209 241 9,000  Level FlightAware ADS-B
Thu 05:26:42 PM 39.0093 -104.6849 186° South 207 238 9,000  Level FlightAware ADS-B
Thu 05:27:02 PM 38.9896 -104.6856 180° South 207 238 9,000  Level FlightAware ADS-B
Thu 05:27:23 PM 38.9729 -104.6855 180° South 193 222 9,000 -293 Level FlightAware ADS-B
Thu 05:27:43 PM 38.9536 -104.6855 180° South 178 205 8,800 -750 Descending FlightAware ADS-B
Thu 05:28:03 PM 38.9382 -104.6856 180° South 166 191 8,500 -900 Descending FlightAware ADS-B
Thu 05:28:23 PM 38.9224 -104.6856 180° South 161 185 8,200 -900 Descending FlightAware ADS-B
Thu 05:28:43 PM 38.9101 -104.6856 180° South 165 190 7,900 -900 Descending FlightAware ADS-B
Thu 05:29:03 PM 38.8922 -104.6857 180° South 162 186 7,600 -769 Descending FlightAware ADS-B
Thu 05:29:22 PM 38.8798 -104.6857 180° South 161 185 7,400 -769 Descending FlightAware ADS-B
Thu 05:29:42 PM 38.8635 -104.6857 180° South 160 184 7,100 46 Descending FlightAware ADS-B
Thu 06:04:04 PM 38.7293 -104.6859 169° South 201 231 9,000 55 Climbing FlightAware ADS-B
Thu 06:04:24 PM 38.7108 -104.6716 131° Southeast 199 229 9,000  Level FlightAware ADS-B
Thu 06:04:40 PM 38.7052 -104.6623 126° Southeast 203 234 9,000  Level FlightAware ADS-B
Thu 06:05:01 PM 38.6909 -104.6365 125° Southeast 203 234 9,000  Level FlightAware ADS-B
Thu 06:05:25 PM 38.6788 -104.6144 126° Southeast 203 234 9,000  Level FlightAware ADS-B
Thu 06:05:44 PM 38.6674 -104.5948 126° Southeast 202 232 9,000  Level FlightAware ADS-B
Thu 06:06:05 PM 38.6580 -104.5739 105° East 207 238 9,000  Level FlightAware ADS-B
Thu 06:06:16 PM 38.6573 -104.5663 78° East 213 245 9,000  Level FlightAware ADS-B
Thu 06:06:43 PM 38.6748 -104.5350 21° North 224 258 9,000  Level FlightAware ADS-B
Thu 06:06:56 PM 38.6896 -104.5323 North 229 264 9,000  Level FlightAware ADS-B
Thu 06:07:24 PM 38.7071 -104.5328 358° North 227 261 9,000  Level FlightAware ADS-B
Thu 06:07:44 PM 38.7364 -104.5344 358° North 227 261 9,000  Level FlightAware ADS-B
Thu 06:08:25 PM 38.7830 -104.5369 359° North 228 262 9,000  Level FlightAware ADS-B
Thu 06:08:45 PM 38.8039 -104.5379 358° North 228 262 9,000  Level FlightAware ADS-B
Thu 06:09:05 PM 38.8083 -104.5381 358° North 226 260 9,000  Level FlightAware ADS-B
Thu 06:09:22 PM 38.8444 -104.5400 358° North 233 268 9,000  Level FlightAware ADS-B
Thu 06:09:45 PM 38.8676 -104.5407 359° North 229 264 9,000  Level FlightAware ADS-B
Thu 06:10:02 PM 38.8764 -104.5410 358° North 232 267 9,000  Level FlightAware ADS-B
Thu 06:10:23 PM 38.9085 -104.5423 359° North 234 269 9,000  Level FlightAware ADS-B
Thu 06:10:43 PM 38.9308 -104.5432 358° North 238 274 9,000  Level FlightAware ADS-B
Thu 06:11:05 PM 38.9413 -104.5436 359° North 236 272 9,000  Level FlightAware ADS-B
Thu 06:11:25 PM 38.9749 -104.5448 359° North 228 262 9,000  Level FlightAware ADS-B
Thu 06:11:44 PM 38.9956 -104.5488 334° Northwest 229 264 9,000  Level FlightAware ADS-B
Thu 06:12:05 PM 39.0091 -104.5656 292° West 225 259 9,000  Level FlightAware ADS-B
Thu 06:12:25 PM 39.0154 -104.5924 282° West 223 257 9,000  Level FlightAware ADS-B
Thu 06:12:45 PM 39.0204 -104.6208 283° West 227 261 9,000  Level FlightAware ADS-B
Thu 06:13:05 PM 39.0251 -104.6470 283° West 223 257 9,000  Level FlightAware ADS-B
Thu 06:13:25 PM 39.0260 -104.6672 243° Southwest 193 222 9,000  Level FlightAware ADS-B
Thu 06:13:45 PM 39.0158 -104.6815 196° South 186 214 9,000  Level FlightAware ADS-B
Thu 06:14:04 PM 38.9950 -104.6856 181° South 182 209 9,000  Level FlightAware ADS-B
Thu 06:14:25 PM 38.9799 -104.6856 180° South 184 212 9,000 -146 Level FlightAware ADS-B
Thu 06:14:45 PM 38.9595 -104.6855 180° South 183 211 8,900 -600 Descending FlightAware ADS-B
Thu 06:15:05 PM 38.9436 -104.6855 180° South 179 206 8,600 -923 Descending FlightAware ADS-B
Thu 06:15:24 PM 38.9285 -104.6855 180° South 169 194 8,300 -900 Descending FlightAware ADS-B
Thu 06:15:45 PM 38.9158 -104.6856 180° South 166 191 8,000 -878 Descending FlightAware ADS-B
Thu 06:16:05 PM 38.8960 -104.6856 180° South 166 191 7,700 -900 Descending FlightAware ADS-B
Thu 06:16:25 PM 38.8874 -104.6856 180° South 166 191 7,400 -973 Descending FlightAware ADS-B
Thu 06:16:42 PM 38.8680 -104.6857 180° South 168 193 7,100 -882 Descending FlightAware ADS-B
Thu 06:16:59 PM 38.8548 -104.6857 180° South 168 193 6,900 -103 Descending FlightAware ADS-B
Thu 06:18:38 PM 38.7775 -104.6857 180° South 189 217 6,900 754 Level FlightAware ADS-B
Thu 06:19:46 PM 38.7253 -104.6692 105° East 207 238 9,000 1,448 Climbing FlightAware ADS-B
Thu 06:20:05 PM 38.7232 -104.6406 85° East 215 247 9,000  Level FlightAware ADS-B
Thu 06:20:26 PM 38.7252 -104.6143 84° East 216 249 9,000  Level FlightAware ADS-B
Thu 06:20:46 PM 38.7333 -104.5876 48° Northeast 224 258 9,000  Level FlightAware ADS-B
Thu 06:20:55 PM 38.7399 -104.5811 12° North 229 264 9,000  Level FlightAware ADS-B
Thu 06:21:19 PM 38.7647 -104.5739 North 226 260 9,000  Level FlightAware ADS-B
Thu 06:21:46 PM 38.7927 -104.5696 North 225 259 9,000  Level FlightAware ADS-B
Thu 06:22:02 PM 38.8098 -104.5668 North 228 262 9,000  Level FlightAware ADS-B
Thu 06:22:23 PM 38.8317 -104.5663 359° North 231 266 9,000  Level FlightAware ADS-B
Thu 06:22:46 PM 38.8569 -104.5674 358° North 231 266 9,000  Level FlightAware ADS-B
Thu 06:23:06 PM 38.8748 -104.5682 358° North 226 260 9,000  Level FlightAware ADS-B
Thu 06:23:42 PM 38.9133 -104.5697 359° North 230 265 9,000  Level FlightAware ADS-B
Thu 06:24:04 PM 38.9392 -104.5707 358° North 231 266 9,000  Level FlightAware ADS-B
Thu 06:24:26 PM 38.9609 -104.5717 358° North 227 261 9,000  Level FlightAware ADS-B
Thu 06:24:46 PM 38.9828 -104.5726 358° North 228 262 9,000  Level FlightAware ADS-B
Thu 06:25:05 PM 39.0028 -104.5757 340° North 217 250 9,000  Level FlightAware ADS-B
Thu 06:25:26 PM 39.0171 -104.5933 296° West 204 235 9,000  Level FlightAware ADS-B
Thu 06:25:46 PM 39.0200 -104.6177 274° West 199 229 9,000  Level FlightAware ADS-B
Thu 06:26:05 PM 39.0205 -104.6277 271° West 201 231 9,000  Level FlightAware ADS-B
Thu 06:26:23 PM 39.0178 -104.6566 233° Southwest 186 214 9,000  Level FlightAware ADS-B
Thu 06:26:46 PM 39.0009 -104.6750 214° Southwest 184 212 9,000  Level FlightAware ADS-B
Thu 06:27:06 PM 38.9921 -104.6822 189° South 179 206 9,000  Level FlightAware ADS-B
Thu 06:27:25 PM 38.9718 -104.6855 181° South 177 204 9,000 -300 Level FlightAware ADS-B
Thu 06:27:46 PM 38.9564 -104.6855 180° South 172 198 8,800 -732 Descending FlightAware ADS-B
Thu 06:28:06 PM 38.9382 -104.6856 180° South 156 180 8,500 -900 Descending FlightAware ADS-B
Thu 06:28:26 PM 38.9329 -104.6856 180° South 149 171 8,200 -750 Descending FlightAware ADS-B
Thu 06:28:46 PM 38.9145 -104.6856 180° South 151 174 8,000 -750 Descending FlightAware ADS-B
Thu 06:29:06 PM 38.8961 -104.6856 180° South 153 176 7,700 -769 Descending FlightAware ADS-B
Thu 06:29:25 PM 38.8833 -104.6857 180° South 148 170 7,500 -789 Descending FlightAware ADS-B
Thu 06:29:44 PM 38.8708 -104.6857 180° South 146 168 7,200 -1,000 Descending FlightAware ADS-B
Thu 06:30:13 PM 38.8522 -104.6857 180° South 145 167 6,700 -792 Descending FlightAware ADS-B
Thu 06:30:37 PM 38.8350 -104.6857 180° South 150 173 6,500 792 Descending FlightAware ADS-B
Thu 06:32:37 PM 38.7488 -104.6852 181° South 196 226 8,600 1,014 Climbing FlightAware ADS-B
Thu 06:33:05 PM 38.7234 -104.6773 132° Southeast 203 234 9,000 500 Climbing FlightAware ADS-B
Thu 06:33:25 PM 38.7155 -104.6538 92° East 210 242 9,000  Level FlightAware ADS-B
Thu 06:33:46 PM 38.7167 -104.6288 84° East 213 245 9,000  Level FlightAware ADS-B
Thu 06:34:03 PM 38.7185 -104.6067 82° East 214 246 9,000  Level FlightAware ADS-B
Thu 06:34:27 PM 38.7301 -104.5803 33° Northeast 224 258 9,000  Level FlightAware ADS-B
Thu 06:34:36 PM 38.7381 -104.5753 North 228 262 9,000  Level FlightAware ADS-B
Thu 06:35:27 PM 38.7941 -104.5752 357° North 227 261 9,000  Level FlightAware ADS-B
Thu 06:35:46 PM 38.8073 -104.5759 357° North 227 261 9,000  Level FlightAware ADS-B
Thu 06:36:05 PM 38.8305 -104.5774 358° North 224 258 9,000  Level FlightAware ADS-B
Thu 06:36:27 PM 38.8545 -104.5787 357° North 227 261 9,000  Level FlightAware ADS-B
Thu 06:37:05 PM 38.8943 -104.5808 358° North 231 266 9,000  Level FlightAware ADS-B
Thu 06:37:26 PM 38.9170 -104.5821 358° North 230 265 9,000  Level FlightAware ADS-B
Thu 06:37:47 PM 38.9361 -104.5831 357° North 228 262 9,000  Level FlightAware ADS-B
Thu 06:38:07 PM 38.9583 -104.5845 358° North 229 264 9,000  Level FlightAware ADS-B
Thu 06:38:26 PM 38.9805 -104.5855 358° North 228 262 9,000  Level FlightAware ADS-B
Thu 06:38:47 PM 39.0022 -104.5902 330° Northwest 226 260 9,000  Level FlightAware ADS-B
Thu 06:39:07 PM 39.0166 -104.6122 287° West 223 257 9,000  Level FlightAware ADS-B
Thu 06:39:26 PM 39.0190 -104.6375 271° West 220 253 9,000  Level FlightAware ADS-B
Thu 06:39:46 PM 39.0138 -104.6614 235° Southwest 210 242 9,000  Level FlightAware ADS-B
Thu 06:40:07 PM 39.0031 -104.6731 212° Southwest 196 226 9,000  Level FlightAware ADS-B
Thu 06:40:27 PM 38.9830 -104.6847 187° South 181 208 9,000  Level FlightAware ADS-B
Thu 06:40:47 PM 38.9668 -104.6855 180° South 182 209 9,000 -474 Level FlightAware ADS-B
Thu 06:41:05 PM 38.9514 -104.6856 180° South 173 199 8,700 -769 Descending FlightAware ADS-B
Thu 06:41:26 PM 38.9356 -104.6855 180° South 167 192 8,500 -732 Descending FlightAware ADS-B
Thu 06:41:46 PM 38.9187 -104.6855 180° South 161 185 8,200 -900 Descending FlightAware ADS-B
Thu 06:42:06 PM 38.9055 -104.6856 180° South 157 181 7,900 -878 Descending FlightAware ADS-B
Thu 06:42:27 PM 38.8892 -104.6856 180° South 158 182 7,600 -878 Descending FlightAware ADS-B
Thu 06:42:47 PM 38.8761 -104.6857 180° South 158 182 7,300 -789 Descending FlightAware ADS-B
Thu 06:43:05 PM 38.8707 -104.6857 180° South 152 175 7,100 -724 Descending FlightAware ADS-B
Thu 06:43:45 PM 38.8342 -104.6857 180° South 150 173 6,600 -294 Descending FlightAware ADS-B
Thu 06:44:47 PM 38.7945 -104.6858 180° South 151 174 6,600 371 Level FlightAware ADS-B
Thu 06:45:22 PM 38.7694 -104.6875 184° South 151 174 7,200 900 Climbing FlightAware ADS-B
Thu 06:46:07 PM 38.7458 -104.6677 86° East 165 190 7,800 738 Climbing FlightAware ADS-B
Thu 06:46:27 PM 38.7464 -104.6595 82° East 169 194 8,000 308 Climbing FlightAware ADS-B
Thu 06:46:46 PM 38.7499 -104.6247 84° East 191 220 8,000 615 Level FlightAware ADS-B
Thu 06:47:06 PM 38.7514 -104.6031 85° East 215 247 8,400 1,350 Climbing FlightAware ADS-B
Thu 06:47:26 PM 38.7553 -104.5771 65° Northeast 215 247 8,900 878 Climbing FlightAware ADS-B
Thu 06:47:47 PM 38.7715 -104.5593 19° North 224 258 9,000 143 Climbing FlightAware ADS-B
Thu 06:48:08 PM 38.7925 -104.5574 358° North 225 259 9,000  Level FlightAware ADS-B
Thu 06:48:48 PM 38.8207 -104.5592 358° North 226 260 9,000  Level FlightAware ADS-B
Thu 06:49:07 PM 38.8554 -104.5613 357° North 227 261 9,000  Level FlightAware ADS-B
Thu 06:49:26 PM 38.8717 -104.5622 358° North 229 264 9,000  Level FlightAware ADS-B
Thu 06:49:47 PM 38.8899 -104.5632 358° North 227 261 9,000  Level FlightAware ADS-B
Thu 06:50:27 PM 38.9317 -104.5653 358° North 228 262 9,000  Level FlightAware ADS-B
Thu 06:50:48 PM 38.9598 -104.5665 358° North 224 258 9,000  Level FlightAware ADS-B
Thu 06:51:08 PM 38.9809 -104.5683 352° North 225 259 9,000  Level FlightAware ADS-B
Thu 06:51:27 PM 38.9972 -104.5810 307° West 226 260 9,000  Level FlightAware ADS-B
Thu 06:51:46 PM 39.0033 -104.5993 277° West 217 250 9,000  Level FlightAware ADS-B
Thu 06:52:08 PM 39.0055 -104.6318 273° West 215 247 9,000  Level FlightAware ADS-B
Thu 06:52:27 PM 39.0056 -104.6578 263° West 209 241 9,000  Level FlightAware ADS-B
Thu 06:52:47 PM 38.9963 -104.6766 219° Southwest 197 227 9,000  Level FlightAware ADS-B
Thu 06:53:08 PM 38.9781 -104.6855 182° South 187 215 9,000  Level FlightAware ADS-B
Thu 06:53:28 PM 38.9625 -104.6857 180° South 168 193 9,000 -450 Level FlightAware ADS-B
Thu 06:53:48 PM 38.9457 -104.6856 180° South 171 197 8,700 -900 Descending FlightAware ADS-B
Thu 06:54:08 PM 38.9311 -104.6855 180° South 163 188 8,400 -900 Descending FlightAware ADS-B
Thu 06:54:28 PM 38.9159 -104.6856 180° South 155 178 8,100 -900 Descending FlightAware ADS-B
Thu 06:54:48 PM 38.9024 -104.6856 180° South 155 178 7,800 -769 Descending FlightAware ADS-B
Thu 06:55:07 PM 38.8938 -104.6856 180° South 153 176 7,600 -750 Descending FlightAware ADS-B
Thu 06:55:28 PM 38.8748 -104.6857 180° South 153 176 7,300 -973 Descending FlightAware ADS-B
Thu 06:55:44 PM 38.8624 -104.6857 180° South 156 180 7,000 -960 Descending FlightAware ADS-B
Thu 06:56:18 PM 38.8377 -104.6857 180° South 150 173 6,500 145 Descending FlightAware ADS-B
Thu 06:58:00 PM 38.9589 -104.6291 North  Level FlightAware Approximate
Thu 06:59:00 PM 39.0464 -104.6167 North  Level FlightAware Approximate
Thu 07:00:00 PM 39.1345 -104.6167 North  Level FlightAware Approximate
Thu 07:01:00 PM 39.2226 -104.6167 North  Level FlightAware Approximate
Thu 07:02:00 PM 39.3107 -104.6167 North  Level FlightAware Approximate
Thu 07:03:00 PM 39.3988 -104.6167 North  Level FlightAware Approximate
Thu 07:04:00 PM 39.4869 -104.6167 North  Level FlightAware Approximate
Thu 07:05:00 PM 39.5750 -104.6167 North  Level FlightAware Approximate
Thu 07:06:00 PM 39.6631 -104.6167 North  Level FlightAware Approximate
Thu 07:07:00 PM 39.7003 -104.7020 281° West  Level FlightAware Approximate
Thu 07:08:00 PM 39.7176 -104.8143 281° West  Level FlightAware Approximate
Thu 07:09:00 PM 39.7350 -104.9266 282° West  Level FlightAware Approximate
Thu 07:10:00 PM 39.7537 -105.0386 282° West  Level FlightAware Approximate
Thu 07:11:00 PM 39.7696 -105.1509 282° West  Level FlightAware Approximate
Thu 07:12:00 PM 39.7906 -105.2622 288° West  Level FlightAware Approximate
Thu 07:13:00 PM 39.8145 -105.3725 285° West  Level FlightAware Approximate
Thu 07:14:00 PM 39.8362 -105.4836 282° West  Level FlightAware Approximate
Thu 07:15:00 PM 39.8549 -105.5958 282° West  Level FlightAware Approximate
Thu 07:16:00 PM 39.8742 -105.7078 283° West  Level FlightAware Approximate
Thu 07:17:00 PM 39.8945 -105.8195 283° West  Level FlightAware Approximate
Thu 07:18:00 PM 39.9129 -105.9317 282° West  Level FlightAware Approximate
Thu 07:19:00 PM 39.9307 -106.0443 282° West  Level FlightAware Approximate
Thu 07:20:00 PM 39.9483 -106.1569 282° West  Level FlightAware Approximate
Thu 07:21:00 PM 39.9658 -106.2695 281° West  Level FlightAware Approximate
Thu 07:22:00 PM 39.9832 -106.3822 281° West  Level FlightAware Approximate
Thu 07:23:00 PM 40.0249 -106.4830 303° West  Level FlightAware Approximate
Thu 07:24:00 PM 40.0751 -106.5771 316° Northwest  Level FlightAware Approximate
Thu 07:25:00 PM 40.1379 -106.6577 308° West  Level FlightAware Approximate
Thu 07:26:00 PM 40.1920 -106.7487 308° West  Level FlightAware Approximate
Thu 07:27:00 PM 40.2461 -106.8398 308° West  Level FlightAware Approximate
Thu 07:28:00 PM 40.3000 -106.9310 308° West  Level FlightAware Approximate
Thu 07:29:00 PM 40.3540 -107.0224 308° West  Level FlightAware Approximate
Thu 07:30:00 PM 40.4078 -107.1140 308° West  Level FlightAware Approximate
Thu 07:31:00 PM 40.4615 -107.2057 308° West  Level FlightAware Approximate
Thu 07:32:00 PM 40.5152 -107.2975 308° West  Level FlightAware Approximate
Thu 07:33:00 PM 40.5704 -107.3879 309° West  Level FlightAware Approximate
Thu 07:34:00 PM 40.6256 -107.4783 309° West  Level FlightAware Approximate
Thu 07:35:00 PM 40.6807 -107.5690 309° West  Level FlightAware Approximate
Thu 07:36:00 PM 40.7357 -107.6597 309° West  Level FlightAware Approximate
Thu 07:37:00 PM 40.7928 -107.7482 311° West  Level FlightAware Approximate
Thu 07:38:00 PM 40.8506 -107.8361 311° West  Level FlightAware Approximate
Thu 07:39:00 PM 40.9084 -107.9241 311° West  Level FlightAware Approximate
Thu 07:40:00 PM 40.9661 -108.0122 311° West  Level FlightAware Approximate
Thu 07:41:00 PM 41.0237 -108.1005 311° West  Level FlightAware Approximate
Thu 07:42:00 PM 41.0812 -108.1890 311° West  Level FlightAware Approximate
Thu 07:43:00 PM 41.1387 -108.2776 311° West  Level FlightAware Approximate
Thu 07:44:00 PM 41.1961 -108.3664 311° West  Level FlightAware Approximate
Thu 07:45:00 PM 41.2533 -108.4554 309° West  Level FlightAware Approximate
Thu 07:46:00 PM 41.3089 -108.5464 309° West  Level FlightAware Approximate
Thu 07:47:00 PM 41.3643 -108.6376 309° West  Level FlightAware Approximate
Thu 07:48:00 PM 41.4198 -108.7289 309° West  Level FlightAware Approximate
Thu 07:49:00 PM 41.4751 -108.8203 309° West  Level FlightAware Approximate
Thu 07:50:00 PM 41.5304 -108.9119 309° West  Level FlightAware Approximate
Thu 07:51:00 PM 41.5849 -109.0042 296° West  Level FlightAware Approximate
Thu 07:52:00 PM 41.6239 -109.1099 296° West  Level FlightAware Approximate
Thu 07:53:00 PM 41.6628 -109.2157 296° West  Level FlightAware Approximate
Thu 07:54:00 PM 41.7015 -109.3216 296° West  Level FlightAware Approximate
Thu 07:55:00 PM 41.7402 -109.4276 296° West  Level FlightAware Approximate
Thu 07:56:00 PM 41.7788 -109.5338 296° West  Level FlightAware Approximate
Thu 07:57:00 PM 41.8173 -109.6401 296° West  Level FlightAware Approximate
Thu 07:58:00 PM 41.8557 -109.7465 296° West  Level FlightAware Approximate
Thu 07:59:00 PM 41.8940 -109.8531 296° West  Level FlightAware Approximate
Thu 08:00:00 PM 41.9322 -109.9597 296° West  Level FlightAware Approximate
Thu 08:01:00 PM 41.9703 -110.0665 296° West  Level FlightAware Approximate
Thu 08:02:00 PM 42.0084 -110.1734 296° West  Level FlightAware Approximate
Thu 08:03:00 PM 42.0468 -110.2802 296° West  Level FlightAware Approximate
Thu 08:04:00 PM 42.0850 -110.3871 296° West  Level FlightAware Approximate
Thu 08:05:00 PM 42.1232 -110.4941 296° West  Level FlightAware Approximate
Thu 08:06:00 PM 42.1612 -110.6013 296° West  Level FlightAware Approximate
Thu 08:07:00 PM 42.1994 -110.7084 296° West  Level FlightAware Approximate
Thu 08:08:00 PM 42.2375 -110.8157 296° West  Level FlightAware Approximate
Thu 08:09:00 PM 42.2755 -110.9231 296° West  Level FlightAware Approximate
Thu 08:10:00 PM 42.3134 -111.0306 296° West  Level FlightAware Approximate
Thu 08:11:00 PM 42.3512 -111.1382 295° West  Level FlightAware Approximate
Thu 08:12:00 PM 38.9018 -104.6408 21° North  Level FlightAware Approximate
Thu 08:12:12 PM 39.1533 -104.5876 357° North 440 506 18,100  Level FlightAware ADS-B
Thu 08:12:42 PM 39.2056 -104.5906 358° North 443 510 19,700 2,962 Climbing FlightAware ADS-B
Thu 08:13:31 PM 39.3222 -104.5977 357° North 449 517 22,000 2,582 Climbing FlightAware ADS-B
Thu 08:14:01 PM 39.3735 -104.6012 357° North 457 526 23,100 2,361 Climbing FlightAware ADS-B (EGNT / NCL)
Thu 08:14:32 PM 39.4457 -104.6060 357° North 464 534 24,400 2,190 Climbing FlightAware ADS-B
Thu 08:15:04 PM 39.5056 -104.6096 357° North 470 541 25,400 1,886 Climbing FlightAware ADS-B (EGNT / NCL)
Thu 08:15:42 PM 39.5927 -104.6152 352° North 474 545 26,600 1,837 Climbing FlightAware ADS-B
Thu 08:15:53 PM 39.6246 -104.6245 341° North 467 537 26,900 1,846 Climbing FlightAware ADS-B
Thu 08:16:08 PM 39.6545 -104.6435 327° Northwest 460 529 27,400 1,800 Climbing FlightAware ADS-B
Thu 08:16:13 PM 39.6605 -104.6488 323° Northwest 458 527 27,500 1,579 Climbing FlightAware ADS-B
Thu 08:16:27 PM 39.6818 -104.6736 312° West 454 522 27,900 1,615 Climbing FlightAware ADS-B (EGNT / NCL)
Thu 08:16:39 PM 39.6928 -104.6913 300° West 452 520 28,200 1,655 Climbing FlightAware ADS-B
Thu 08:16:56 PM 39.7111 -104.7391 286° West 451 519 28,700 1,429 Climbing FlightAware ADS-B
Thu 08:17:42 PM 39.7339 -104.8653 283° West 461 531 29,700 1,286 Climbing FlightAware ADS-B (EGNT / NCL)
Thu 08:18:20 PM 39.7514 -104.9645 283° West 465 535 30,500 1,391 Climbing FlightAware ADS-B (EGNT / NCL)
Thu 08:18:51 PM 39.7668 -105.0516 283° West 461 531 31,300 1,524 Climbing FlightAware ADS-B
Thu 08:19:23 PM 39.7771 -105.1101 283° West 456 525 32,100 2,323 Climbing FlightAware ADS-B
Thu 08:19:53 PM 39.7950 -105.2119 283° West 432 497 33,700 2,813 Climbing FlightAware ADS-B
Thu 08:20:27 PM 39.8105 -105.3015 283° West 423 487 35,100 1,760 Climbing FlightAware ADS-B (EGNT / NCL)
Thu 08:21:08 PM 39.8284 -105.4044 283° West 423 487 35,900 1,000 Climbing FlightAware ADS-B
Thu 08:21:39 PM 39.8421 -105.4843 283° West 425 489 36,300 492 Climbing FlightAware ADS-B
Thu 08:22:09 PM 39.8550 -105.5576 283° West 434 499 36,400 375 Climbing FlightAware ADS-B
Thu 08:22:43 PM 39.8603 -105.5888 283° West 439 505 36,700 923 Climbing FlightAware ADS-B
Thu 08:23:14 PM 39.8830 -105.7230 282° West 428 493 37,400 1,034 Climbing FlightAware ADS-B (EGNT / NCL)
Thu 08:23:41 PM 39.8989 -105.7914 293° West 430 495 37,700 471 Climbing FlightAware ADS-B
Thu 08:24:05 PM 39.9204 -105.8411 304° West 435 501 37,800 333 Climbing FlightAware ADS-B (EGNT / NCL)
Thu 08:24:35 PM 39.9568 -105.9067 306° West 440 506 38,000 176 Climbing FlightAware ADS-B (EGNT / NCL)
Thu 08:25:13 PM 40.0017 -105.9882 306° West 437 503 38,000  Level FlightAware ADS-B
Thu 08:25:57 PM 40.0451 -106.0671 306° West 434 499 38,000  Level FlightAware ADS-B (EGNT / NCL)
Thu 08:26:32 PM 40.0901 -106.1492 306° West 439 505 38,000  Level FlightAware ADS-B (EGNT / NCL)
Thu 08:27:02 PM 40.1308 -106.2234 306° West 440 506 38,000  Level FlightAware ADS-B (EGNT / NCL)
Thu 08:27:34 PM 40.1580 -106.2733 306° West 436 502 38,000  Level FlightAware ADS-B (EGNT / NCL)
Thu 08:28:20 PM 40.2209 -106.3888 305° West 433 498 38,000 -70 Level FlightAware ADS-B (EGNT / NCL)
Thu 08:29:00 PM 40.2682 -106.4758 306° West 430 495 37,900  Descending FlightAware ADS-B (EGNT / NCL)
Thu 08:29:30 PM 40.3018 -106.5376 305° West 426 490 38,000 97 Climbing FlightAware ADS-B (EGNT / NCL)
Thu 08:30:02 PM 40.3383 -106.6056 305° West 429 494 38,000  Level FlightAware ADS-B (EGNT / NCL)
Thu 08:30:47 PM 40.3853 -106.6929 305° West 445 512 38,000  Level FlightAware ADS-B (EGNT / NCL)
Thu 08:31:17 PM 40.4265 -106.7691 305° West 441 507 38,000  Level FlightAware ADS-B (EGNT / NCL)
Thu 08:31:51 PM 40.4637 -106.8384 305° West 434 499 38,000  Level FlightAware ADS-B
Thu 08:32:24 PM 40.4964 -106.8995 305° West 434 499 38,000  Level FlightAware ADS-B (EGNT / NCL)
Thu 08:32:55 PM 40.5243 -106.9518 305° West 437 503 38,000  Level FlightAware ADS-B
Thu 08:33:36 PM 40.5869 -107.0693 305° West 439 505 38,000  Level FlightAware ADS-B (EGNT / NCL)
Thu 08:34:25 PM 40.6393 -107.1679 305° West 436 502 38,000  Level FlightAware ADS-B (EGNT / NCL)
Thu 08:35:03 PM 40.6811 -107.2469 305° West 433 498 38,000  Level FlightAware ADS-B
Thu 08:35:41 PM 40.7313 -107.3414 305° West 427 491 38,000  Level FlightAware ADS-B
Thu 08:36:15 PM 40.7457 -107.3687 305° West 425 489 38,000  Level FlightAware ADS-B
Thu 08:36:51 PM 40.8050 -107.4822 305° West 428 493 38,000  Level FlightAware ADS-B
Thu 08:38:01 PM 40.8872 -107.6389 305° West 428 493 38,000  Level FlightAware ADS-B
Thu 08:39:18 PM 40.9727 -107.8030 305° West 433 498 38,000  Level FlightAware ADS-B
Thu 08:40:57 PM 41.0878 -108.0256 304° West 433 498 38,000 286 Level FlightAware ADS-B
Thu 08:44:33 PM 41.3232 -108.4850 304° West 438 504 39,500 471 Climbing FlightAware ADS-B
Thu 08:45:12 PM 41.3753 -108.5883 304° West 439 505 40,000 98 Climbing FlightAware ADS-B
Thu 08:49:40 PM 41.6702 -109.2292 296° West 445 512 40,000  Level FlightAware ADS-B
Thu 08:50:43 PM 41.7330 -109.3980 296° West 455 524 40,000  Level FlightAware ADS-B
Thu 08:51:46 PM 41.7909 -109.5557 296° West 456 525 40,000  Level FlightAware ADS-B
Thu 08:52:45 PM 41.8250 -109.6480 296° West 458 527 40,000  Level FlightAware ADS-B
Thu 08:54:09 PM 41.9118 -109.8856 296° West 458 527 40,000  Level FlightAware ADS-B
Thu 08:55:53 PM 42.0181 -110.1793 296° West 448 516 40,000  Level FlightAware ADS-B
Thu 08:56:41 PM 42.0590 -110.2929 296° West 461 531 40,000  Level FlightAware ADS-B
Thu 08:57:25 PM 42.0933 -110.3872 296° West 455 524 40,000  Level Salt Lake Center
Thu 08:58:27 PM 42.1544 -110.5608 295° West 456 525 40,000  Level Salt Lake Center
Thu 08:59:29 PM 42.2083 -110.7111 296° West 463 533 40,000  Level Salt Lake Center
Thu 09:05:15 PM 42.5284 -111.6333 294° West 451 519 40,000  Level FlightAware ADS-B
Thu 09:05:56 PM 42.5639 -111.7375 295° West 453 521 40,000  Level FlightAware ADS-B
Thu 09:06:51 PM 42.6127 -111.8809 295° West 455 524 40,000  Level FlightAware ADS-B
Thu 09:07:36 PM 42.6525 -111.9983 295° West 462 532 40,000  Level FlightAware ADS-B
Thu 09:08:28 PM 42.6986 -112.1351 295° West 467 537 40,000  Level FlightAware ADS-B
Thu 09:09:08 PM 42.7341 -112.2409 295° West 464 534 40,000  Level FlightAware ADS-B
Thu 09:09:42 PM 42.7642 -112.3321 293° West 461 531 40,000  Level FlightAware ADS-B (KBTF)
Thu 09:10:28 PM 42.8049 -112.4539 294° West 465 535 40,000  Level FlightAware ADS-B
Thu 09:11:16 PM 42.8465 -112.5800 293° West 461 531 40,000  Level FlightAware ADS-B (KBTF)
Thu 09:11:48 PM 42.8799 -112.6652 303° West 472 543 40,000  Level FlightAware ADS-B (KBTF)
Thu 09:12:29 PM 42.9326 -112.7622 306° West 463 533 40,000  Level FlightAware ADS-B (KBTF)
Thu 09:13:01 PM 42.9751 -112.8380 307° West 468 539 40,000  Level FlightAware ADS-B (KBTF)
Thu 09:13:42 PM 43.0296 -112.9349 308° West 482 555 40,000 -130 Level FlightAware ADS-B (KBTF)
Thu 09:14:33 PM 43.0977 -113.0557 308° West 481 554 39,800  Descending FlightAware ADS-B (KBTF)
Thu 09:15:47 PM 43.1948 -113.2304 307° West 465 535 40,000 96 Climbing FlightAware ADS-B (KBTF)
Thu 09:16:38 PM 43.2612 -113.3499 307° West 464 534 40,000  Level FlightAware ADS-B (KBTF)
Thu 09:17:20 PM 43.3160 -113.4495 306° West 464 534 40,000  Level FlightAware ADS-B (KBTF)
Thu 09:18:05 PM 43.3751 -113.5567 307° West 478 550 40,000  Level FlightAware ADS-B (KBTF)
Thu 09:18:46 PM 43.4301 -113.6566 307° West 477 549 40,000  Level FlightAware ADS-B (KBTF)
Thu 09:19:25 PM 43.4823 -113.7519 307° West 479 551 40,000  Level FlightAware ADS-B (KBTF)
Thu 09:20:05 PM 43.5349 -113.8484 307° West 486 559 40,000  Level FlightAware ADS-B (KBTF)
Thu 09:20:35 PM 43.5761 -113.9245 307° West 487 560 40,000  Level FlightAware ADS-B (KBTF)
Thu 09:21:15 PM 43.6288 -114.0223 307° West 479 551 40,000  Level FlightAware ADS-B (KBTF)
Thu 09:21:55 PM 43.6822 -114.1207 306° West 474 545 40,000  Level FlightAware ADS-B (KBTF)
Thu 09:22:35 PM 43.7349 -114.2184 307° West 481 554 40,000  Level FlightAware ADS-B (KBTF)
Thu 09:23:15 PM 43.7881 -114.3176 306° West 478 550 40,000  Level FlightAware ADS-B (KBTF)
Thu 09:23:55 PM 43.8408 -114.4164 306° West 477 549 40,000  Level FlightAware ADS-B (KBTF)
Thu 09:24:36 PM 43.8942 -114.5166 306° West 473 544 40,000  Level FlightAware ADS-B (KBTF)
Thu 09:25:16 PM 43.9470 -114.6163 306° West 475 547 40,000  Level FlightAware ADS-B (KBTF)
Thu 09:26:09 PM 44.0111 -114.7381 306° West 479 551 40,000  Level Salt Lake Center
Thu 09:27:10 PM 44.0897 -114.8869 306° West 479 551 40,000  Level Salt Lake Center
Thu 09:28:11 PM 44.1675 -115.0350 306° West 478 550 40,000  Level Salt Lake Center
Thu 09:29:13 PM 44.2439 -115.1831 306° West 476 548 40,000  Level Salt Lake Center
Thu 09:30:14 PM 44.3211 -115.3308 306° West 475 547 40,000  Level Salt Lake Center
Thu 09:31:16 PM 44.4003 -115.4831 306° West 481 554 40,000  Level Salt Lake Center
Thu 09:32:17 PM 44.4778 -115.6336 306° West 483 556 40,000  Level Salt Lake Center
Thu 09:33:19 PM 44.5703 -115.8161 305° West 483 556 40,000  Level Salt Lake Center
Thu 09:34:20 PM 44.6469 -115.9661 306° West 483 556 40,000 244 Level Salt Lake Center
Thu 09:35:22 PM 44.7222 -116.1156 305° West 482 555 40,500 390 Climbing Salt Lake Center
Thu 09:36:23 PM 44.7892 -116.2650 302° West 466 536 40,800 488 Climbing Salt Lake Center
Thu 09:37:25 PM 44.8453 -116.4264 296° West 464 534 41,500 976 Climbing Salt Lake Center
Thu 09:38:26 PM 44.9142 -116.6197 297° West 463 533 42,800 732 Climbing Salt Lake Center
Thu 09:39:28 PM 44.9708 -116.7794 297° West 462 532 43,000 98 Climbing Salt Lake Center
Thu 09:40:29 PM 45.0322 -116.9375 299° West 460 529 43,000 -780 Level Salt Lake Center
Thu 09:41:31 PM 45.1047 -117.0861 305° West 460 529 41,400 -2,000 Descending Salt Lake Center
Thu 09:42:32 PM 45.1756 -117.2358 304° West 460 529 38,900 -1,672 Descending Salt Lake Center
Thu 09:43:33 PM 45.2439 -117.3828 303° West 453 521 38,000 -439 Descending Salt Lake Center
Thu 09:44:35 PM 45.3139 -117.5333 304° West 455 524 38,000  Level Salt Lake Center
Thu 09:45:37 PM 45.3883 -117.6936 304° West 481 554 38,000  Level Salt Lake Center
Thu 09:46:38 PM 45.4669 -117.8642 303° West 483 556 38,000  Level Salt Lake Center
Thu 09:52:03 PM 45.8779 -118.7725 302° West 488 562 38,000  Level FlightAware ADS-B (KPFC)
Thu 09:52:51 PM 45.9363 -118.9039 302° West 482 555 38,000  Level FlightAware ADS-B (KPFC)
Thu 09:54:00 PM 46.0181 -119.0891 303° West 490 564 38,000  Level FlightAware ADS-B
Thu 09:54:46 PM 46.0743 -119.2170 302° West 488 562 38,000  Level FlightAware ADS-B
Thu 09:55:16 PM 46.1076 -119.2934 302° West 491 565 38,000  Level FlightAware ADS-B
Thu 09:55:52 PM 46.1537 -119.3993 302° West 493 567 38,000  Level FlightAware ADS-B (KPFC)
Thu 09:56:28 PM 46.1964 -119.4971 302° West 495 570 38,000  Level FlightAware ADS-B
Thu 09:57:05 PM 46.2428 -119.6046 301° West 493 567 38,000  Level FlightAware ADS-B (KPFC)
Thu 09:57:40 PM 46.2842 -119.6997 302° West 499 574 38,000  Level FlightAware ADS-B
Thu 09:58:31 PM 46.3453 -119.8420 302° West 497 572 38,000  Level FlightAware ADS-B
Thu 09:59:11 PM 46.3933 -119.9542 302° West 501 577 38,000  Level FlightAware ADS-B
Thu 09:59:41 PM 46.4308 -120.0423 302° West 499 574 38,000  Level FlightAware ADS-B
Thu 09:59:46 PM 46.4380 -120.0590 302° West 499 574 38,000  Level FlightAware ADS-B
Thu 10:00:20 PM 46.4789 -120.1560 301° West 500 575 38,000  Level FlightAware ADS-B
Thu 10:00:52 PM 46.5175 -120.2470 302° West 501 577 38,000 -190 Level FlightAware ADS-B
Thu 10:01:23 PM 46.5540 -120.3330 301° West 496 571 37,800 -393 Descending FlightAware ADS-B
Thu 10:01:53 PM 46.5903 -120.4200 301° West 485 558 37,600 -857 Descending FlightAware ADS-B
Thu 10:02:12 PM 46.5966 -120.4350 302° West 474 545 37,100 -1,125 Descending FlightAware ADS-B
Thu 10:02:25 PM 46.6270 -120.5070 301° West 464 534 37,000 -1,105 Descending FlightAware ADS-B
Thu 10:02:50 PM 46.6494 -120.5611 301° West 470 541 36,400 -1,500 Descending FlightAware ADS-B
Thu 10:02:57 PM 46.6619 -120.5910 301° West 472 543 36,200 -3,158 Descending FlightAware ADS-B
Thu 10:03:28 PM 46.6974 -120.6760 301° West 471 542 34,400 -3,429 Descending FlightAware ADS-B
Thu 10:03:32 PM 46.7010 -120.6851 301° West 471 542 34,200 -3,892 Descending FlightAware ADS-B
Thu 10:04:05 PM 46.7383 -120.7748 301° West 466 536 32,000 -3,714 Descending FlightAware ADS-B (KPFC)
Thu 10:04:14 PM 46.7483 -120.7980 301° West 467 537 31,600 -3,455 Descending FlightAware ADS-B
Thu 10:04:38 PM 46.7741 -120.8599 301° West 446 513 30,100 -3,800 Descending FlightAware ADS-B
Thu 10:04:44 PM 46.7802 -120.8750 301° West 434 499 29,700 -4,333 Descending FlightAware ADS-B
Thu 10:05:14 PM 46.8110 -120.9490 302° West 422 486 27,500 -4,230 Descending FlightAware ADS-B
Thu 10:05:45 PM 46.8429 -121.0200 304° West 419 482 25,400 -3,733 Descending FlightAware ADS-B
Thu 10:05:59 PM 46.8593 -121.0549 305° West 427 491 24,700 -2,800 Descending FlightAware ADS-B (KPFC)
Thu 10:06:15 PM 46.8771 -121.0920 305° West 426 490 24,000 -2,625 Descending FlightAware ADS-B
Thu 10:06:31 PM 46.8948 -121.1300 304° West 416 479 23,300 -2,600 Descending FlightAware ADS-B (KPFC)
Thu 10:06:45 PM 46.9103 -121.1630 305° West 416 479 22,700 -2,667 Descending FlightAware ADS-B
Thu 10:07:07 PM 46.9334 -121.2124 304° West 407 468 21,700 -2,710 Descending FlightAware ADS-B (KPFC)
Thu 10:07:16 PM 46.9427 -121.2320 304° West 405 466 21,300 -2,333 Descending FlightAware ADS-B
Thu 10:07:43 PM 46.9709 -121.2932 303° West 393 452 20,300 -2,200 Descending FlightAware ADS-B (KPFC)
Thu 10:07:46 PM 46.9742 -121.3000 304° West 392 451 20,200 -750 Descending FlightAware ADS-B
Thu 10:08:15 PM 46.9720 -121.2953 304° West 398 458 19,900 -581 Descending FlightAware ADS-B
Thu 10:08:17 PM 47.0056 -121.3670 304° West 398 458 19,900 -563 Level FlightAware ADS-B
Thu 10:08:47 PM 47.0350 -121.4300 304° West 361 415 19,600 -571 Descending FlightAware ADS-B
Thu 10:08:59 PM 47.0465 -121.4548 304° West 354 407 19,500 -400 Descending FlightAware ADS-B (KPFC)
Thu 10:09:17 PM 47.0623 -121.4890 304° West 346 398 19,400 -600 Descending FlightAware ADS-B
Thu 10:09:39 PM 47.0821 -121.5325 304° West 347 399 19,100 -1,000 Descending FlightAware ADS-B (KPFC)
Thu 10:09:47 PM 47.0892 -121.5480 304° West 347 399 18,900 -1,688 Descending FlightAware ADS-B
Thu 10:10:11 PM 47.1106 -121.5946 304° West 343 395 18,200 -1,600 Descending FlightAware ADS-B (KPFC)
Thu 10:10:17 PM 47.1159 -121.6060 304° West 341 392 18,100 -1,622 Descending FlightAware ADS-B
Thu 10:10:48 PM 47.1425 -121.6640 304° West 336 387 17,200 -1,765 Descending FlightAware ADS-B
Thu 10:10:51 PM 47.1455 -121.6706 303° West 332 382 17,100 -1,600 Descending FlightAware ADS-B (KPFC)
Thu 10:11:18 PM 47.1685 -121.7210 304° West 333 383 16,400 -1,600 Descending FlightAware ADS-B
Thu 10:11:21 PM 47.1709 -121.7262 304° West 398 458 16,300 -1,800 Descending FlightAware ADS-B
Thu 10:11:48 PM 47.1941 -121.7770 304° West 328 377 15,500 -1,800 Descending FlightAware ADS-B
Thu 10:12:01 PM 47.1709 -121.7262 304° West 398 458 15,100 -1,200 Descending FlightAware ADS-B
Thu 10:12:18 PM 47.2195 -121.8320 304° West 322 371 14,900 -1,059 Descending FlightAware ADS-B
Thu 10:12:35 PM 47.2245 -121.8432 304° West 323 372 14,500 -1,400 Descending FlightAware ADS-B
Thu 10:12:48 PM 47.2445 -121.8870 304° West 322 371 14,200 -1,814 Descending FlightAware ADS-B
Thu 10:13:18 PM 47.2692 -121.9420 304° West 320 368 13,200 -2,000 Descending FlightAware ADS-B
Thu 10:13:21 PM 47.2717 -121.9472 304° West 321 369 13,100 -1,800 Descending FlightAware ADS-B
Thu 10:13:48 PM 47.2938 -121.9960 304° West 318 366 12,300 -1,862 Descending FlightAware ADS-B
Thu 10:14:19 PM 47.3177 -122.0480 304° West 293 337 11,300 -1,770 Descending FlightAware ADS-B
Thu 10:14:49 PM 47.3403 -122.0980 304° West 293 337 10,500 -2,182 Descending FlightAware ADS-B
Thu 10:14:52 PM 47.3422 -122.1025 303° West 289 333 10,100 -1,765 Descending FlightAware ADS-B
Thu 10:15:06 PM 47.3528 -122.1260 304° West 288 331 10,000 -1,241 Descending FlightAware ADS-B
Thu 10:15:21 PM 47.3639 -122.1510 304° West 281 323 9,500 -1,929 Descending FlightAware ADS-B
Thu 10:15:34 PM 47.3726 -122.1710 301° West 274 315 9,100 -2,069 Descending FlightAware ADS-B
Thu 10:15:50 PM 47.3828 -122.1970 300° West 273 314 8,500 -2,250 Descending FlightAware ADS-B
Thu 10:16:06 PM 47.3929 -122.2220 301° West 272 313 7,900 -2,129 Descending FlightAware ADS-B
Thu 10:16:21 PM 47.4030 -122.2460 302° West 271 312 7,400 -1,548 Descending FlightAware ADS-B
Thu 10:16:37 PM 47.4131 -122.2710 302° West 265 305 7,100 -900 Descending FlightAware ADS-B
Thu 10:16:41 PM 47.4158 -122.2767 302° West 263 303 7,100 -400 Level FlightAware ADS-B
Thu 10:16:52 PM 47.4230 -122.2940 302° West 262 302 7,000 -286 Descending FlightAware ADS-B
Thu 10:17:02 PM 47.4293 -122.3086 302° West 259 298 7,000 -375 Level FlightAware ADS-B
Thu 10:17:08 PM 47.4329 -122.3170 302° West 257 296 6,900 -1,714 Descending FlightAware ADS-B
Thu 10:17:23 PM 47.4426 -122.3400 302° West 257 296 6,400 -2,000 Descending FlightAware ADS-B
Thu 10:17:38 PM 47.4523 -122.3630 302° West 255 293 5,900 -2,211 Descending FlightAware ADS-B
Thu 10:17:42 PM 47.4549 -122.3680 304° West 255 293 5,700 -2,667 Descending FlightAware ADS-B
Thu 10:17:47 PM 47.4583 -122.3750 309° West 255 293 5,500 -2,250 Descending FlightAware ADS-B
Thu 10:17:50 PM 47.4611 -122.3790 315° West 257 296 5,400 -1,714 Descending FlightAware ADS-B
Thu 10:17:54 PM 47.4649 -122.3840 320° Northwest 257 296 5,300 -2,182 Descending FlightAware ADS-B
Thu 10:18:01 PM 47.4710 -122.3900 326° Northwest 257 296 5,000 -2,308 Descending FlightAware ADS-B
Thu 10:18:07 PM 47.4772 -122.3960 330° Northwest 258 297 4,800 -2,182 Descending FlightAware ADS-B
Thu 10:18:23 PM 47.4940 -122.4080 334° Northwest 258 297 4,200 -1,935 Descending FlightAware ADS-B
Thu 10:18:38 PM 47.5102 -122.4200 334° Northwest 255 293 3,800 -1,364 Descending FlightAware ADS-B
Thu 10:18:45 PM 47.5182 -122.4260 335° Northwest 247 284 3,700 -500 Descending FlightAware ADS-B
Thu 10:18:50 PM 47.5228 -122.4280 338° Northwest 245 282 3,700 -750 Level FlightAware ADS-B
Thu 10:18:53 PM 47.5262 -122.4300 343° North 243 280 3,600 -2,000 Descending FlightAware ADS-B
Thu 10:18:56 PM 47.5294 -122.4310 345° North 242 278 3,500 -857 Descending FlightAware ADS-B
Thu 10:19:00 PM 47.5342 -122.4330 348° North 241 277 3,500 -1,000 Level FlightAware ADS-B
Thu 10:19:08 PM 47.5419 -122.4350 351° North 239 275 3,300 -1,765 Descending FlightAware ADS-B
Thu 10:19:17 PM 47.5521 -122.4370 353° North 238 274 3,000 -1,846 Descending FlightAware ADS-B
Thu 10:19:21 PM 47.5569 -122.4370 357° North 239 275 2,900 -1,800 Descending FlightAware ADS-B
Thu 10:19:27 PM 47.5629 -122.4380 North 241 277 2,700 -1,636 Descending FlightAware ADS-B
Thu 10:19:32 PM 47.5686 -122.4370 North 242 278 2,600 -667 Descending FlightAware ADS-B
Thu 10:19:36 PM 47.5728 -122.4370 North 244 281 2,600 -750 Level FlightAware ADS-B
Thu 10:19:40 PM 47.5775 -122.4350 12° North 245 282 2,500 -1,333 Descending FlightAware ADS-B
Thu 10:19:45 PM 47.5830 -122.4320 22° Northeast 246 283 2,400 -667 Descending FlightAware ADS-B
Thu 10:19:49 PM 47.5868 -122.4290 30° Northeast 244 281 2,400  Level FlightAware ADS-B
Thu 10:19:53 PM 47.5903 -122.4260 38° Northeast 242 278 2,400 -857 Level FlightAware ADS-B
Thu 10:19:56 PM 47.5932 -122.4220 43° Northeast 241 277 2,300 -1,333 Descending FlightAware ADS-B
Thu 10:20:02 PM 47.5976 -122.4150 47° Northeast 238 274 2,200 -947 Descending FlightAware ADS-B
Thu 10:20:15 PM 47.6068 -122.4000 50° Northeast 236 272 2,000 -783 Descending FlightAware ADS-B
Thu 10:20:25 PM 47.6120 -122.3860 65° Northeast 227 261 1,900 -462 Descending FlightAware ADS-B
Thu 10:20:28 PM 47.6127 -122.3810 79° East 219 252 1,900 -400 Level FlightAware ADS-B
Thu 10:20:40 PM 47.6101 -122.3650 93° East 212 244 1,800 -1,000 Descending FlightAware ADS-B
Thu 10:20:46 PM 47.6066 -122.3600 127° Southeast 187 215 1,600 -1,500 Descending FlightAware ADS-B
Thu 10:20:56 PM 47.5995 -122.3550 160° South 163 188 1,400 -933 Descending FlightAware ADS-B
Thu 10:21:31 PM 47.5778 -122.3442 160° South 162 186 900 -813 Descending Seattle Center
Thu 10:22:32 PM 47.5425 -122.3128 149° Southeast 145 167 100 -393 Descending Seattle Center
Thu 10:23:33 PM 47.5119 -122.2867 150° Southeast 145 167 100  Level Seattle Center

Login

Don't have an account? Register now (free) for customized features, flight alerts, and more!